Regional Weather Roundup
Issued by NWS

Home | Current Version | Previous Version | Text Only | Print | Product List | Glossary On
Versions: 1 2 3 4 5 6 7 8 9 10 11 12 13 14 15 16 17 18 19 20 21 22 23 24 25 26 27 28 29 30 31 32 33 34 35 36 37 38 39 40 41 42 43 44 45 46 47 48 49 50
000
ASUS43 KTOP 110208
RWRKS

WEATHER ROUNDUP FOR KANSAS
NATIONAL WEATHER SERVICE GOODLAND KS
900 PM CDT THU JUL 10 2014

NOTE:  "FAIR" INDICATES FEW OR NO CLOUDS BELOW 12,000 FEET WITH NO
SIGNIFICANT WEATHER AND/OR OBSTRUCTIONS TO VISIBILITY.

KSZ001>006-013>018-027>032-041>047-110300-
NORTHWEST KANSAS

CITY           SKY/WX    TMP DP  RH WIND       PRES   REMARKS
GOODLAND       CLEAR     83  68  60 SE15      29.91R
HAYS           CLEAR    N/A N/A N/A SE18      29.92S
HILL CITY      CLEAR     80  69  69 SE12      29.91R
RUSSELL        CLEAR     78  68  71 SE16      29.92R
$$

KSZ061>065-074>080-084>089-110300-
SOUTHWEST KANSAS

CITY           SKY/WX    TMP DP  RH WIND       PRES   REMARKS
DODGE CITY     CLEAR     81  69  67 SE16      29.93R
ELKHART          N/A     87  53  31 S10         N/A
GARDEN CITY    CLEAR     86  57  37 S16       29.90R
GREAT BEND     CLEAR     77  66  69 SE17      29.92R
LIBERAL        CLEAR     90  52  27 S14       29.93R
PRATT          CLEAR     77  68  73 SE14G21   29.96R
$$

KSZ066>073-081>083-090>101-110300-
SOUTHEAST KANSAS

CITY           SKY/WX    TMP DP  RH WIND       PRES   REMARKS
CHANUTE        CLEAR     74  66  76 S6        30.03R
COFFEYVILLE    MOCLDY    75  68  78 S14       30.03R
HUTCHINSON     CLEAR     77  65  66 SE10      29.96R
MEDICINE LODGE   N/A     78  71  79 SE9       29.94R
NEWTON         CLEAR     75  63  64 SE12      30.02R
PARSONS        CLEAR     75  67  76 SE3       30.04R
WICHITA INTL   PTCLDY    75  67  76 SE12      29.98R
WICHITA JABRA  CLEAR     75  66  73 SE13      29.99R
WICHITA MCCONL CLEAR     76  69  80 E13       29.99R
WINFIELD       CLEAR     74  69  85 SE12G20   30.00R
$$

KSZ007>012-019>026-033>040-048>060-102>105-110300-
NORTHEAST KANSAS

CITY           SKY/WX    TMP DP  RH WIND       PRES   REMARKS
CONCORDIA      CLEAR     78  66  66 SE13      29.95R
EMPORIA        CLEAR     75  64  68 SE10      30.01R
LAWRENCE       CLEAR     77  67  71 SE9       30.02R
MANHATTAN      CLEAR     80  63  55 SE8       29.97R
MARYSVILLE     CLEAR     77  66  69 SE8       29.98R
OLATHE IND     CLEAR     76  65  68 SE8       30.05R
OLATHE EXE     CLEAR     75  65  70 SE7       30.04R
SALINA         CLEAR     81  67  62 SE15      29.95R
TOPEKA BILLARD CLEAR     79  66  64 SE9       30.00S
TOPEKA FORBES  CLEAR     78  66  66 SE10      30.01R
$$


USA.gov is the U.S. government's official web portal to all federal, state and local government web resources and services.